Tracking 17145 objects as of 24-May-2015
HD Live streaming from Space Station

W75/ABS-1B (HOT BIRD 3)

Track W75/ABS-1B (HOT BIRD 3) now!
W75/ABS-1B (HOT BIRD 3) is classified as:


NORAD ID: 24931
Int'l Code: 1997-049A
Perigee: 35,085.5 km
Apogee: 35,286.5 km
Inclination: 5.0 °
Period: 1,405.2 minutes
Semi major axis: 41556 km
RCS: 15.8489 m2 (large)
Launch date: September 2, 1997
Source: European Telecommunications Satellite Organization (EUTE)

Cable programming; direct-to-home broadcasting; Europe, North Africa, 20 active channels
Your satellite tracking list
Your tracking list is empty





NASA's NSSDC Master Catalog

Two Line Element Set (TLE):
1 24931U 97049A   15142.52028336 -.00000078  00000-0  00000+0 0  9995
2 24931 005.0276 059.5918 0024186 311.7882 261.6182 01.02479535 65271

Source of the keplerian elements: AFSPC

N2YO: 369